CAPE
7 5 3 3 2 1 2 1 2 3 1 0 0 4 5 0 0 0 0 0 0 0 0 0 0 0 8 5 22 24 4 0 0 0 0 0 0 0 0 0 0 0 0 0 0
2 3 4 3 1 0 1 0 0 0 0 0 0 1 3 0 0 0 0 0 0 0 0 0 0 7 4 9 11 40 7 0 0 0 0 0 0 0 0 0 0 0 0 0 233
3 3 2 2 0 0 1 0 0 0 0 0 0 0 0 0 0 0 0 0 0 0 0 0 0 0 3 6 10 13 1 0 0 0 0 0 0 0 0 0 0 0 0 0 0
2 2 2 1 0 0 0 0 0 0 0 0 0 0 0 0 0 0 0 0 0 0 0 0 0 0 0 0 8 15 0 2 1 6 7 3 3 0 0 0 0 0 0 0 0
1 2 2 1 0 0 0 0 0 0 0 0 0 0 0 0 0 0 0 0 0 0 0 0 0 0 0 0 0 1 2 15 10 1 8 18 9 2 0 0 0 0 0 0 11
2 1 2 1 0 0 0 0 0 0 0 0 0 0 0 0 0 0 0 0 0 0 0 0 0 0 0 0 0 0 0 0 0 1 4 2 1 1 0 1 0 0 0 0 0
0 0 1 0 0 0 0 0 0 0 0 0 0 0 0 0 0 0 0 0 0 0 0 0 0 0 0 0 0 0 0 0 0 0 0 6 0 0 0 6 5 0 0 0 0
0 0 0 0 0 0 0 0 0 0 0 0 0 0 0 0 0 0 0 0 0 0 0 0 0 0 0 0 0 0 0 0 0 0 0 0 0 1 0 0 1 2 0 0 0
0 0 0 0 0 0 0 0 0 0 0 0 0 0 0 0 0 0 0 0 0 0 0 0 0 0 0 0 0 0 0 0 0 0 0 0 0 0 0 0 0 4 0 0 0
0 0 0 0 0 0 0 0 0 0 0 0 0 0 0 0 0 0 0 0 0 0 0 0 0 0 0 0 0 0 0 0 0 0 0 0 0 0 0 0 0 0 0 0 0
0 0 0 0 0 0 0 0 0 0 0 0 0 0 0 0 0 0 0 0 0 0 0 0 0 0 0 0 1 1 1 0 0 0 0 0 0 0 0 0 0 0 0 0 0
0 0 0 0 0 0 0 0 0 0 0 0 0 0 0 0 0 0 0 0 0 0 0 0 0 0 0 0 0 0 7 0 2 1 7 0 0 0 0 0 0 0 0 0 0
0 0 0 0 0 0 0 0 0 0 0 0 0 0 0 0 0 0 0 0 0 0 0 0 0 0 0 0 0 0 3 7 6 8 7 5 7 0 0 0 0 0 0 0 0
0 0 0 0 0 0 0 0 0 0 0 0 0 0 0 0 0 0 0 0 0 0 0 0 0 0 0 0 0 0 0 0 0 4 2 2 0 0 0 0 0 0 0 0 0
0 0 0 0 0 0 0 0 0 0 0 0 0 0 0 0 0 0 0 0 0 0 0 0 0 0 0 0 0 0 0 0 1 0 3 0 1 0 0 0 0 0 0 0 0
0 0 0 0 0 0 0 0 0 0 0 0 0 0 0 0 0 0 0 0 0 0 0 0 0 0 0 0 0 0 2 1 0 2 1 0 0 0 0 0 0 0 0 0 0
0 0 0 0 0 0 0 0 0 0 0 0 0 0 0 0 0 0 0 0 0 0 0 0 0 0 0 0 0 0 4 0 0 0 0 0 0 0 0 0 0 0 0 0 0
0 0 0 0 0 0 0 0 0 0 0 0 0 0 0 0 0 0 0 0 0 0 0 0 0 0 0 0 0 0 0 0 0 0 0 0 0 0 0 0 0 0 0 0 0
0 0 0 0 0 0 0 0 0 0 0 0 0 0 0 0 0 0 0 0 0 0 0 0 0 0 0 0 0 0 1 1 1 0 0 0 0 0 0 0 0 0 0 0 0
0 0 0 0 0 0 0 0 0 0 0 0 0 0 0 0 0 0 0 0 0 0 0 0 0 0 0 0 0 0 0 0 0 0 0 0 0 0 0 0 0 0 0 0 0
0 0 0 0 0 0 0 0 0 0 0 0 0 0 0 0 0 0 0 0 0 0 0 0 0 0 0 0 0 0 0 0 0 0 0 0 0 0 0 0 0 2 0 0 0
0 0 0 0 0 0 0 0 0 0 0 0 0 0 0 0 0 0 0 0 0 0 0 0 1 0 0 0 0 0 0 0 0 0 0 0 0 0 0 0 0 1 5 0 0
0 0 0 0 0 0 0 0 0 0 0 0 0 0 0 0 0 0 0 0 0 0 0 0 0 0 0 0 0 0 0 0 0 0 0 0 0 0 0 0 0 1 0 2 0
0 0 0 0 0 0 0 0 0 0 0 0 0 0 1 0 0 0 0 0 0 0 0 0 0 0 0 0 0 0 0 0 0 0 0 0 0 0 0 0 0 0 1 2 5
0 0 0 0 0 0 0 0 0 0 0 0 0 0 0 0 0 0 0 0 0 0 0 0 0 0 0 0 0 0 0 0 0 0 0 0 0 0 0 0 0 0 0 3 5
0 0 0 0 0 0 0 0 0 0 0 0 0 0 0 0 0 0 0 0 0 0 0 0 0 0 0 0 0 0 0 0 0 0 0 0 0 0 0 0 0 0 0 2 3
0 0 0 0 0 0 0 0 0 0 0 0 0 0 0 0 0 0 0 0 0 0 0 0 0 0 0 0 0 0 0 0 0 0 0 0 0 0 0 0 0 0 1 1 2
CIN
-0 -1 -1 -1 -0 -0 -0 -0 -0 -0 -0 -0 -0 -0 -0 -0 -0 -0 -0 -0 -0 -0 -0 -0 -0 -0 -0 -0 -0 -1 -0 -0 -0 -0 -0 -0 -0 -0 -0 -0 -0 -0 -0 -0 -0
-0 -0 -0 -0 -0 -0 -0 -0 -0 -0 -0 -0 -0 -0 -0 -0 -0 -0 -0 -0 -0 -0 -0 -0 -0 -0 -0 -0 -0 -0 -0 -0 -0 -0 -0 -0 -0 -0 -0 -0 -0 -0 -0 -0 -84
-0 -0 -0 -0 -0 -0 -0 -0 -0 -0 -0 -0 -0 -0 -0 -0 -0 -0 -0 -0 -0 -0 -0 -0 -0 -0 -0 -0 -0 -1 -0 -0 -0 -0 -0 -0 -0 -0 -0 -0 -0 -0 -0 -0 -0
-0 -0 -0 -0 -0 -0 -0 -0 -0 -0 -0 -0 -0 -0 -0 -0 -0 -0 -0 -0 -0 -0 -0 -0 -0 -0 -0 -0 -0 -0 -1 -1 -1 -1 -2 -1 -1 -0 -0 -0 -0 -0 -0 -0 -0
-0 -0 -0 -0 -0 -0 -0 -0 -0 -0 -0 -0 -0 -0 -0 -0 -0 -0 -0 -0 -0 -0 -0 -0 -0 -0 -0 -0 -0 -2 -0 -1 -3 -0 -2 -8 -1 -3 -0 -0 -0 -0 -0 -0 -0
-0 -0 -0 -0 -0 -0 -0 -0 -0 -0 -0 -0 -0 -0 -0 -0 -0 -0 -0 -0 -0 -0 -0 -0 -0 -0 -0 -0 -0 -0 -0 -0 -0 -0 -0 -0 -0 -0 -0 -1 -0 -0 -0 -0 -0
-0 -0 -0 -0 -0 -0 -0 -0 -0 -0 -0 -0 -0 -0 -0 -0 -0 -0 -0 -0 -0 -0 -0 -0 -0 -0 -0 -0 -0 -0 -0 -0 -0 -0 -0 -0 -0 -0 -0 -1 -1 -0 -0 -0 -0
-0 -0 -0 -0 -0 -0 -0 -0 -0 -0 -0 -0 -0 -0 -0 -0 -0 -0 -0 -0 -0 -0 -0 -0 -0 -0 -0 -0 -0 -0 -0 -3 -0 -0 -0 -0 -0 -0 -0 -0 -3 -2 -0 -0 -0
-0 -0 -0 -0 -0 -0 -0 -0 -0 -0 -0 -0 -0 -0 -0 -0 -0 -0 -0 -0 -0 -0 -0 -0 -0 -0 -0 -0 -0 -0 -0 -0 -0 -0 -0 -0 -0 -0 -0 -0 -5 -5 -0 -0 -0
-0 -0 -0 -0 -0 -0 -0 -0 -0 -0 -0 -0 -0 -0 -0 -0 -0 -0 -0 -0 -0 -0 -0 -0 -0 -0 -0 -0 -0 -0 -0 -0 -0 -0 -0 -0 -0 -0 -0 -0 -0 -0 -0 -0 -0
-0 -0 -0 -0 -0 -0 -0 -0 -0 -0 -0 -0 -0 -0 -0 -0 -0 -0 -0 -0 -0 -0 -0 -0 -0 -0 -0 -0 -5 -4 -5 -0 -0 -0 -0 -0 -0 -0 -0 -0 -0 -0 -0 -0 -2
-0 -0 -0 -0 -0 -0 -0 -0 -0 -0 -0 -0 -0 -0 -0 -0 -0 -0 -0 -0 -0 -0 -0 -0 -0 -0 -0 -0 -0 -1 -3 -3 -2 -1 -4 -0 -0 -0 -0 -0 -0 -0 -0 -0 -0
-0 -0 -0 -0 -0 -0 -0 -0 -0 -0 -0 -0 -0 -0 -0 -0 -0 -0 -0 -0 -0 -0 -0 -0 -0 -0 -0 -0 -0 -1 -7 -5 -4 -3 -5 -3 -5 -0 -0 -0 -0 -0 -0 -0 -0
-0 -0 -0 -0 -0 -0 -0 -0 -0 -0 -0 -0 -0 -0 -0 -0 -0 -0 -0 -0 -0 -0 -0 -0 -0 -0 -0 -0 -0 -0 -0 -0 -0 -6 -1 -3 -0 -0 -0 -0 -0 -0 -0 -0 -0
-0 -0 -0 -0 -0 -0 -0 -0 -0 -0 -0 -0 -0 -0 -0 -0 -0 -0 -0 -0 -0 -0 -0 -0 -0 -0 -0 -0 -0 -0 -0 -0 -3 -3 -2 -0 -3 -0 -0 -0 -0 -0 -0 -0 -0
-0 -0 -0 -0 -0 -0 -0 -0 -0 -0 -0 -0 -0 -0 -0 -0 -0 -0 -0 -0 -0 -0 -0 -0 -0 -0 -0 -0 -0 -0 -1 -2 -0 -3 -0 -0 -0 -0 -0 -0 -0 -0 -0 -0 -0
-0 -0 -0 -0 -0 -0 -0 -0 -0 -0 -0 -0 -0 -0 -0 -0 -0 -0 -0 -0 -0 -0 -0 -0 -0 -0 -0 -0 -0 -0 -2 -1 -0 -0 -0 -0 -1 -3 -0 -1 -0 -0 -0 -0 -0
-0 -0 -0 -0 -0 -0 -0 -0 -0 -0 -0 -0 -0 -0 -0 -0 -0 -0 -0 -0 -0 -0 -0 -0 -0 -0 -0 -0 -0 -0 -0 -3 -0 -0 -0 -0 -0 -0 -0 -0 -0 -0 -0 -0 -0
-0 -0 -0 -0 -0 -0 -0 -0 -0 -0 -0 -0 -0 -0 -0 -0 -0 -0 -0 -0 -0 -0 -0 -0 -0 -0 -0 -0 -0 -1 -1 -2 -0 -0 -0 -0 -0 -0 -0 -0 -0 -0 -0 -0 -0
-0 -0 -0 -0 -0 -0 -0 -0 -0 -0 -0 -0 -0 -0 -0 -0 -0 -0 -0 -0 -0 -0 -0 -0 -0 -0 -0 -0 -0 -0 -0 -0 -2 -0 -0 -0 -0 -0 -0 -0 -0 -0 -0 -0 -0
-0 -0 -0 -0 -0 -0 -0 -0 -0 -0 -0 -0 -0 -0 -0 -0 -0 -0 -0 -0 -0 -0 -0 -0 -0 -0 -0 -0 -0 -0 -0 -1 -0 -0 -1 -1 -0 -0 -0 -0 -0 -0 -0 -0 -0
-0 -0 -0 -0 -0 -0 -0 -0 -0 -0 -0 -0 -0 -0 -0 -1 -0 -0 -0 -0 -0 -0 -0 -0 -0 -0 -0 -0 -0 -0 -0 -0 -0 -0 -0 -0 -0 -0 -0 -0 -0 -0 -4 -0 -0
-0 -0 -0 -0 -0 -0 -0 -0 -0 -0 -0 -0 -0 -0 -0 -0 -0 -0 -0 -0 -0 -0 -0 -0 -0 -0 -0 -0 -0 -0 -0 -0 -0 -0 -0 -0 -0 -0 -0 -0 -0 -0 -0 -0 -0
-0 -0 -0 -0 -0 -0 -0 -0 -0 -0 -0 -0 -0 -0 -1 -0 -0 -0 -0 -0 -0 -0 -0 -0 -0 -0 -0 -0 -0 -0 -0 -0 -0 -0 -0 -0 -0 -0 -0 -0 -0 -0 -0 -0 -0
-0 -0 -0 -0 -0 -0 -0 -0 -0 -0 -0 -0 -0 -0 -0 -0 -0 -0 -0 -0 -0 -0 -0 -0 -0 -0 -0 -0 -0 -0 -0 -0 -0 -0 -0 -0 -0 -0 -0 -0 -0 -0 -0 -0 -0
-0 -0 -0 -0 -0 -0 -0 -0 -0 -0 -0 -0 -0 -0 -0 -0 -0 -0 -0 -0 -0 -0 -0 -0 -0 -0 -0 -0 -0 -0 -0 -0 -0 -0 -0 -0 -0 -0 -0 -0 -0 -0 -0 -0 -0
-0 -0 -0 -0 -0 -0 -0 -0 -0 -0 -0 -0 -0 -0 -0 -0 -0 -0 -0 -0 -0 -0 -0 -0 -0 -0 -0 -0 -0 -0 -0 -0 -0 -0 -0 -0 -0 -0 -0 -0 -0 -0 -0 -0 -0
Wind_Speed
33 34 34 35 36 36 37 37 36 34 34 34 32 31 25 24 26 29 34 35 35 36 35 33 28 27 25 28 26 28 43 51 48 52 48 34 42 37 37 42 35 32 38 33 26
34 35 36 37 37 38 38 37 36 35 36 34 31 31 24 21 20 34 37 36 36 37 35 34 34 32 31 31 31 35 44 49 48 48 51 46 43 39 34 36 39 38 33 28 21
35 36 36 37 38 38 38 37 37 38 34 32 32 27 23 20 25 34 38 38 38 36 35 34 34 36 38 35 36 40 53 54 52 44 43 45 50 44 45 47 40 41 37 32 29
36 37 37 38 38 38 38 38 38 36 32 29 29 26 23 22 31 33 39 39 36 36 37 37 38 41 42 42 38 51 56 59 61 59 61 59 49 48 46 53 38 40 38 36 32
37 38 38 39 38 37 39 39 36 32 31 27 25 24 23 29 32 34 38 38 36 37 41 41 42 43 46 46 49 55 61 60 56 53 55 54 63 65 60 48 44 43 38 34 34
38 38 37 36 36 36 38 37 32 30 30 27 27 24 27 33 33 34 36 41 43 40 43 43 43 45 51 53 53 55 60 64 61 61 55 58 61 56 64 54 56 51 46 40 37
37 34 32 34 33 34 39 33 33 30 26 22 26 28 36 35 35 34 40 42 43 40 46 42 41 42 48 56 48 50 59 58 59 61 58 55 68 67 58 51 53 54 56 52 43
31 33 32 32 31 32 36 32 31 30 26 25 26 27 28 33 35 40 40 45 43 39 41 36 38 42 42 43 47 52 52 63 53 52 53 52 73 57 49 54 59 58 52 50 54
31 32 31 32 30 32 33 29 28 29 29 25 27 25 30 34 45 39 44 48 42 40 39 34 37 36 36 39 43 39 49 52 53 43 49 49 63 53 45 44 50 53 59 58 52
33 32 31 31 29 33 31 23 31 25 25 24 33 27 38 45 41 38 43 46 43 44 41 39 34 36 29 36 45 45 47 49 52 49 50 58 63 63 58 49 51 53 50 50 58
33 33 33 30 29 32 32 23 27 29 36 31 29 31 38 40 31 45 45 50 42 42 48 39 37 35 36 35 38 42 47 50 49 51 52 57 60 61 59 59 53 52 56 50 51
34 33 32 30 27 31 33 29 26 22 33 30 28 33 37 39 38 49 47 49 47 50 43 39 33 31 34 30 34 37 39 44 46 45 44 51 58 59 60 62 59 51 53 54 47
35 32 31 30 22 31 33 31 22 19 28 29 31 37 41 38 40 51 49 45 44 44 41 32 28 28 28 27 30 32 36 40 42 42 41 44 53 54 57 61 61 59 53 51 49
33 32 32 29 25 30 30 28 21 19 32 35 36 36 40 37 39 40 42 38 36 38 37 29 26 26 24 20 22 38 11 36 43 41 42 36 53 48 48 52 57 64 58 53 51
31 30 31 32 28 32 28 25 21 22 47 38 35 29 38 42 39 42 37 34 35 34 31 27 20 22 19 15 8 13 13 23 29 37 38 39 38 43 42 54 59 58 61 60 52
27 27 29 28 28 29 24 22 23 37 47 37 34 41 44 40 41 37 36 34 23 28 30 20 13 16 14 12 10 9 12 16 6 19 23 29 28 29 34 45 48 53 57 58 54
25 25 29 27 33 26 23 26 39 47 37 40 41 40 42 44 40 43 41 42 41 37 44 18 19 19 19 13 12 12 11 31 25 22 23 25 23 22 25 30 42 50 52 53 54
24 25 30 31 27 25 25 34 48 41 39 34 39 39 40 44 39 41 40 39 33 33 31 33 29 22 15 13 16 13 11 31 27 26 27 23 18 16 28 24 28 37 39 41 49
21 25 31 34 28 25 30 45 43 39 36 40 40 41 42 40 39 39 37 31 31 34 36 29 24 11 11 12 18 15 14 6 4 2 10 20 23 18 34 26 24 32 38 40 40
24 25 32 32 27 28 36 40 36 32 34 35 43 38 44 44 43 40 35 27 29 27 19 12 15 8 9 13 17 18 14 11 8 5 16 18 18 26 31 27 24 30 39 42 41
25 28 31 31 27 36 42 38 34 31 32 35 37 37 37 40 39 35 31 26 24 20 8 9 10 9 11 20 22 19 18 10 7 9 6 17 17 28 27 27 23 25 32 39 42
26 32 30 29 38 37 41 36 33 33 30 30 30 31 33 37 35 31 29 24 21 18 7 15 10 7 9 18 24 41 25 22 6 2 7 8 11 8 27 25 18 14 15 28 35
29 28 28 30 42 42 35 35 33 34 33 33 32 30 30 33 34 28 26 20 16 16 9 6 8 8 14 21 21 22 20 9 6 5 3 4 7 13 20 16 12 6 8 12 22
28 34 32 34 34 37 38 39 40 32 31 31 30 29 31 33 26 27 25 18 10 10 7 9 7 7 7 7 7 12 26 12 7 4 3 4 7 12 17 15 10 5 7 9 14
30 31 31 38 38 36 35 36 40 40 31 30 31 31 34 33 32 26 24 20 11 15 22 17 4 7 6 3 15 23 20 11 4 8 9 8 3 10 12 10 5 6 5 4 8
30 31 29 32 33 34 35 38 39 37 33 34 32 32 31 29 28 28 23 18 16 17 22 16 1 8 8 11 11 2 21 10 4 4 8 10 5 13 8 3 0 3 4 3 5
26 25 28 32 34 35 36 36 36 34 30 26 29 31 31 28 25 19 8 2 1 15 18 6 9 7 5 5 8 2 18 9 5 5 11 11 8 14 11 7 2 7 7 5 7
Wind_Direction
354 354 353 352 350 348 345 347 350 351 350 349 349 348 351 352 358 354 342 338 336 334 330 326 323 313 301 293 278 284 276 273 268 275 276 286 274 274 275 269 270 267 267 271 271
358 356 355 354 351 349 347 350 353 352 349 349 350 350 354 357 353 351 344 341 338 335 330 324 317 314 300 295 284 270 272 261 278 283 278 276 274 274 272 269 266 264 268 267 264
2 358 1 354 352 351 352 353 352 349 351 353 353 356 1 0 348 345 345 341 337 336 331 325 317 309 297 291 282 276 266 277 276 283 286 280 274 271 267 264 266 264 265 262 256
355 357 359 358 358 357 356 354 352 352 355 358 360 4 8 357 337 346 343 343 341 338 334 328 318 308 299 291 287 277 275 276 277 277 276 272 277 271 265 262 268 265 266 259 255
358 0 0 359 0 1 358 356 357 3 4 3 7 8 4 354 347 346 345 345 344 339 332 326 318 312 301 297 293 283 281 279 280 281 277 275 268 265 263 263 261 263 262 261 254
1 1 6 9 8 6 3 2 7 8 7 15 14 16 5 350 351 351 350 343 340 335 330 325 318 312 303 297 290 289 284 279 277 275 278 274 270 268 260 260 258 257 255 256 254
7 15 19 16 15 12 7 9 8 11 15 23 13 10 9 359 356 354 347 342 340 336 330 329 325 318 310 302 299 296 287 283 278 274 272 275 267 260 263 262 258 254 251 251 251
21 19 20 20 20 18 11 13 16 17 23 17 12 10 2 7 2 356 351 346 344 342 337 336 331 319 312 310 304 297 290 281 282 281 275 268 262 266 267 258 255 251 250 248 246
22 21 21 21 23 19 17 25 23 23 22 20 10 10 3 358 353 353 351 344 343 344 342 342 337 329 324 316 309 305 294 288 286 282 280 266 265 262 266 264 257 251 247 245 244
20 21 22 22 24 20 20 31 28 23 15 16 17 8 0 352 354 357 354 348 343 343 343 341 340 332 330 323 310 307 301 294 287 282 278 270 267 262 260 263 259 253 249 244 240
19 20 20 22 25 22 23 26 15 13 22 17 14 10 357 357 4 356 354 348 350 347 344 346 341 336 335 327 319 312 303 296 291 283 279 272 268 262 259 254 254 252 245 243 242
17 18 19 21 30 25 26 23 21 20 13 21 17 8 3 360 356 356 358 354 353 352 354 354 353 350 343 337 329 320 314 302 294 289 285 274 267 263 257 251 249 248 243 239 241
15 19 20 22 31 23 23 21 23 29 11 15 12 6 4 3 0 357 0 0 359 2 2 6 7 8 3 357 347 336 319 306 296 295 290 279 270 264 255 250 247 245 243 240 236
18 20 21 24 25 19 20 18 30 30 6 7 7 7 4 5 1 4 9 9 9 8 11 20 19 18 17 13 8 336 301 287 290 291 285 289 268 265 256 248 241 238 238 236 232
20 23 23 27 23 19 16 24 36 25 358 3 5 10 6 9 360 6 14 16 12 15 21 21 19 23 25 28 349 307 291 275 268 274 282 279 270 267 258 244 238 234 233 232 231
22 26 26 26 24 21 25 34 25 7 359 3 4 1 2 6 6 5 14 21 30 22 26 27 51 55 34 18 357 340 327 290 296 289 300 290 276 281 260 247 240 234 231 230 230
24 29 27 28 16 20 29 21 7 3 5 1 0 360 0 2 5 9 10 17 20 16 13 32 47 44 47 358 16 348 352 337 355 349 318 313 296 288 300 267 241 233 232 231 229
28 30 27 25 21 25 24 11 3 4 3 5 2 0 3 5 7 8 12 18 26 25 19 20 22 34 30 20 22 12 28 7 329 317 296 300 290 291 327 296 261 239 239 233 224
32 25 23 17 22 26 17 7 5 5 5 2 2 3 4 7 6 10 13 20 24 24 22 24 31 11 34 35 40 19 5 307 81 204 248 314 342 290 323 306 274 242 234 229 224
24 22 18 16 24 25 16 10 9 11 8 7 3 6 3 4 8 10 15 25 24 29 37 44 28 40 349 63 52 33 16 56 76 95 300 298 327 322 325 311 282 248 231 226 222
23 17 18 18 27 21 11 11 11 13 11 7 6 4 5 6 6 10 17 22 31 30 8 42 60 18 37 48 39 14 11 35 92 96 239 296 317 335 324 313 284 253 234 224 220
22 12 18 22 14 15 12 13 12 12 14 11 9 9 7 7 8 12 15 21 30 303 9 51 55 4 2 47 47 26 40 336 90 269 258 208 273 340 320 315 298 252 246 225 222
14 16 23 25 9 11 15 13 13 11 11 11 9 12 10 9 9 10 16 26 32 299 50 349 58 4 44 53 52 48 351 4 347 138 244 254 272 324 322 326 325 269 254 225 216
16 8 14 20 20 14 11 10 10 13 13 13 8 12 9 5 15 9 8 25 339 272 267 42 59 50 15 338 15 15 345 353 359 51 86 112 319 338 335 344 335 309 278 236 213
17 12 14 6 9 12 13 11 9 9 14 14 12 11 8 7 5 13 12 12 38 276 304 42 67 350 320 72 83 58 350 352 74 71 78 345 26 355 345 322 308 303 286 248 220
14 11 14 10 10 10 10 8 8 9 11 11 10 6 7 6 5 358 2 13 32 275 303 51 48 327 87 84 89 39 350 353 31 7 24 2 37 342 338 349 262 29 356 322 255
20 21 15 8 7 8 8 8 7 9 12 10 7 5 6 8 3 349 338 305 58 247 278 269 293 301 92 75 101 131 351 358 344 124 2 29 329 323 341 350 60 351 352 324 286